TimeCDT,TemperatureF,Dew PointF,Humidity,Sea Level PressureIn,VisibilityMPH,Wind Direction,Wind SpeedMPH,Gust SpeedMPH,PrecipitationIn,Events,Conditions,WindDirDegrees,DateUTC
12:13 AM,35.6,32.0,87,29.89,0.5,Calm,Calm,-,N/A,Fog,Fog,0,2012-10-01 05:13:00
12:34 AM,35.6,32.0,87,29.88,1.2,Calm,Calm,-,N/A,,Mostly Cloudy,0,2012-10-01 05:34:00
12:53 AM,35.6,32.0,87,29.88,1.8,Calm,Calm,-,N/A,,Mostly Cloudy,0,2012-10-01 05:53:00
1:14 AM,35.6,32.0,87,29.87,10.0,Calm,Calm,-,N/A,,Scattered Clouds,0,2012-10-01 06:14:00
1:33 AM,35.6,33.8,93,29.87,10.0,Calm,Calm,-,N/A,,Clear,0,2012-10-01 06:33:00
1:54 AM,35.6,33.8,93,29.86,10.0,Calm,Calm,-,N/A,,Clear,0,2012-10-01 06:54:00
2:33 AM,35.6,33.8,93,29.84,3.0,Calm,Calm,-,N/A,,Clear,0,2012-10-01 07:33:00
2:54 AM,35.6,32.0,87,29.84,2.0,Calm,Calm,-,N/A,,Clear,0,2012-10-01 07:54:00
3:14 AM,35.6,33.8,93,29.84,1.0,Calm,Calm,-,N/A,,Mist,0,2012-10-01 08:14:00
3:33 AM,35.6,33.8,93,29.83,0.8,Calm,Calm,-,N/A,,Mist,0,2012-10-01 08:33:00
3:54 AM,33.8,30.2,87,29.82,3.0,Calm,Calm,-,N/A,,Clear,0,2012-10-01 08:54:00
4:14 AM,35.6,33.8,93,29.82,7.0,Calm,Calm,-,N/A,,Clear,0,2012-10-01 09:14:00
4:33 AM,35.6,32.0,87,29.82,7.0,Calm,Calm,-,N/A,,Clear,0,2012-10-01 09:33:00
4:54 AM,37.4,35.6,93,29.81,10.0,Calm,Calm,-,N/A,,Clear,0,2012-10-01 09:54:00
5:14 AM,33.8,30.2,87,29.82,10.0,Calm,Calm,-,N/A,,Clear,0,2012-10-01 10:14:00
5:34 AM,33.8,30.2,87,29.82,10.0,Calm,Calm,-,N/A,,Clear,0,2012-10-01 10:34:00
5:53 AM,33.8,30.2,87,29.81,10.0,Calm,Calm,-,N/A,,Clear,0,2012-10-01 10:53:00
6:14 AM,35.6,33.8,93,29.81,10.0,West,3.5,-,N/A,,Clear,260,2012-10-01 11:14:00
6:33 AM,37.4,35.6,93,29.80,10.0,Calm,Calm,-,N/A,,Clear,0,2012-10-01 11:33:00
6:54 AM,39.2,35.6,87,29.80,10.0,Calm,Calm,-,N/A,,Clear,0,2012-10-01 11:54:00
7:13 AM,42.8,39.2,87,29.80,10.0,West,3.5,-,N/A,,Clear,260,2012-10-01 12:13:00
7:34 AM,39.2,35.6,87,29.80,10.0,Calm,Calm,-,N/A,,Clear,0,2012-10-01 12:34:00
7:54 AM,39.2,35.6,87,29.80,10.0,Calm,Calm,-,N/A,,Clear,0,2012-10-01 12:54:00
8:13 AM,44.6,39.2,81,29.80,10.0,WNW,5.8,-,N/A,,Clear,300,2012-10-01 13:13:00
8:34 AM,48.2,42.8,82,29.80,10.0,WNW,8.1,-,N/A,,Clear,290,2012-10-01 13:34:00
8:54 AM,51.8,42.8,71,29.79,10.0,NW,8.1,-,N/A,,Clear,310,2012-10-01 13:54:00
9:13 AM,53.6,44.6,72,29.80,10.0,NW,12.7,20.7,N/A,,Clear,310,2012-10-01 14:13:00
9:33 AM,55.4,44.6,67,29.80,10.0,NW,12.7,20.7,N/A,,Clear,320,2012-10-01 14:33:00
9:54 AM,55.4,44.6,67,29.81,10.0,WNW,10.4,20.7,N/A,,Clear,300,2012-10-01 14:54:00
10:14 AM,57.2,44.6,63,29.81,10.0,NW,13.8,20.7,N/A,,Clear,310,2012-10-01 15:14:00
10:34 AM,57.2,44.6,63,29.82,10.0,NNW,13.8,19.6,N/A,,Clear,330,2012-10-01 15:34:00
10:54 AM,57.2,44.6,63,29.82,10.0,NNW,15.0,23.0,N/A,,Clear,330,2012-10-01 15:54:00
11:13 AM,57.2,44.6,63,29.82,10.0,NNW,12.7,19.6,N/A,,Clear,330,2012-10-01 16:13:00
11:34 AM,57.2,44.6,63,29.83,10.0,NW,10.4,20.7,N/A,,Clear,320,2012-10-01 16:34:00
12:13 PM,60.8,46.4,59,29.84,10.0,NW,15.0,24.2,N/A,,Scattered Clouds,310,2012-10-01 17:13:00
12:34 PM,57.2,46.4,67,29.83,10.0,NW,16.1,26.5,N/A,,Mostly Cloudy,320,2012-10-01 17:34:00
12:54 PM,59.0,46.4,63,29.83,10.0,NW,16.1,28.8,N/A,,Mostly Cloudy,320,2012-10-01 17:54:00
1:14 PM,57.2,46.4,67,29.83,10.0,NNW,15.0,24.2,N/A,,Mostly Cloudy,340,2012-10-01 18:14:00
1:33 PM,57.2,46.4,67,29.84,10.0,NW,10.4,21.9,N/A,,Overcast,310,2012-10-01 18:33:00
1:54 PM,57.2,46.4,67,29.84,10.0,NW,12.7,23.0,N/A,,Mostly Cloudy,320,2012-10-01 18:54:00
2:14 PM,57.2,46.4,67,29.84,10.0,NW,18.4,25.3,N/A,,Scattered Clouds,320,2012-10-01 19:14:00
3:14 PM,57.2,46.4,67,29.86,10.0,NNW,15.0,23.0,N/A,,Mostly Cloudy,330,2012-10-01 20:14:00
3:33 PM,57.2,46.4,67,29.86,10.0,NW,12.7,18.4,N/A,,Mostly Cloudy,320,2012-10-01 20:33:00
3:54 PM,57.2,44.6,63,29.86,10.0,NNW,9.2,17.3,N/A,,Scattered Clouds,330,2012-10-01 20:54:00
4:14 PM,57.2,44.6,63,29.87,10.0,NNW,10.4,-,N/A,,Scattered Clouds,330,2012-10-01 21:14:00
4:33 PM,57.2,42.8,59,29.87,10.0,NW,9.2,-,N/A,,Scattered Clouds,320,2012-10-01 21:33:00
4:54 PM,57.2,42.8,59,29.88,10.0,NW,5.8,-,N/A,,Clear,310,2012-10-01 21:54:00
5:14 PM,59.0,42.8,55,29.88,10.0,NW,3.5,-,N/A,,Clear,310,2012-10-01 22:14:00
5:33 PM,60.8,41.0,48,29.88,10.0,WNW,5.8,-,N/A,,Clear,290,2012-10-01 22:33:00
5:54 PM,59.0,39.2,48,29.89,10.0,WNW,6.9,-,N/A,,Scattered Clouds,300,2012-10-01 22:54:00
6:14 PM,57.2,37.4,48,29.90,10.0,NNW,6.9,-,N/A,,Scattered Clouds,330,2012-10-01 23:14:00
6:33 PM,55.4,37.4,51,29.91,10.0,NW,4.6,-,N/A,,Clear,310,2012-10-01 23:33:00
6:54 PM,53.6,37.4,54,29.92,10.0,NW,4.6,-,N/A,,Clear,320,2012-10-01 23:54:00
7:14 PM,53.6,37.4,54,29.92,10.0,NW,3.5,-,N/A,,Clear,310,2012-10-02 00:14:00
7:33 PM,51.8,37.4,58,29.93,10.0,NW,5.8,-,N/A,,Clear,310,2012-10-02 00:33:00
7:54 PM,51.8,37.4,58,29.93,10.0,NW,4.6,-,N/A,,Clear,310,2012-10-02 00:54:00
8:14 PM,51.8,35.6,54,29.93,10.0,NW,4.6,-,N/A,,Clear,310,2012-10-02 01:14:00
8:34 PM,50.0,35.6,58,29.94,10.0,NW,4.6,-,N/A,,Clear,310,2012-10-02 01:34:00
8:53 PM,48.2,35.6,62,29.94,10.0,NW,4.6,-,N/A,,Clear,310,2012-10-02 01:53:00
9:13 PM,46.4,35.6,66,29.94,10.0,WNW,4.6,-,N/A,,Clear,300,2012-10-02 02:13:00
9:34 PM,46.4,35.6,66,29.94,10.0,NW,4.6,-,N/A,,Clear,310,2012-10-02 02:34:00
9:54 PM,46.4,35.6,66,29.94,10.0,NW,4.6,-,N/A,,Clear,310,2012-10-02 02:54:00
10:14 PM,46.4,33.8,62,29.95,10.0,NW,4.6,-,N/A,,Clear,310,2012-10-02 03:14:00
10:33 PM,46.4,33.8,62,29.95,10.0,NW,5.8,-,N/A,,Clear,320,2012-10-02 03:33:00
10:54 PM,44.6,33.8,66,29.95,10.0,NNW,5.8,-,N/A,,Clear,330,2012-10-02 03:54:00
11:14 PM,42.8,32.0,66,29.95,10.0,NNW,5.8,-,N/A,,Clear,330,2012-10-02 04:14:00
11:34 PM,41.0,32.0,70,29.95,10.0,NNW,5.8,-,N/A,,Clear,340,2012-10-02 04:34:00
11:53 PM,39.2,30.2,70,29.95,10.0,NNW,5.8,-,N/A,,Clear,330,2012-10-02 04:53:00